Indianapolis, IN

4:57 PM EST on December 15, 2019 (GMT -0500)
Indianapolis Terry

Weather History for KTYQ - May, 2019

Change the Weather History Date:

Tuesday, May 21, 2019

  Actual Average (WUND) Record (WUND)
Temperature  
Mean Temperature 48 °F -  
Max Temperature 54 °F - - (-1)
Min Temperature 43 °F - - (-1)
Degree Days  
Heating Degree Days 16    
Moisture  
Dew Point 45 °F    
Average Humidity 86    
Maximum Humidity 100    
Minimum Humidity 75    
Precipitation  
Precipitation 0.02 in - - ()
Sea Level Pressure  
Sea Level Pressure 30.06 in    
Wind  
Wind Speed 9 mph ()    
Max Wind Speed 20 mph    
Max Gust Speed 26 mph    
Visibility 10.0 miles    
Events Rain    
Averages and records for this station are not official NWS values.
T = Trace of Precipitation, MM = Missing Value Source: Averaged Metar Reports

Daily Weather History Graph

Daily Weather History Graph

Search for Another Location

Airport or City:

Astronomy

May. 21, 2019 Rise Set
Actual Time 6:24 AM EDT 8:58 PM EDT
Civil Twilight 5:53 AM EDT 9:30 PM EDT
Nautical Twilight 5:14 AM EDT 10:09 PM EDT
Astronomical Twilight 4:31 AM EDT 10:52 PM EDT
Moon 11:54 PM EDT (5/21) 8:40 AM EDT (5/21)
Length of Visible Light 15h 36m
Length of Day
14h 34m
Waning Gibbous, 91% of the Moon is Illuminated
May 21
Waning Gibbous
May 26
Last Quarter
Jun 3
New
Jun 10
First Quarter
Jun 17
Full

Hourly Weather History & Observations

Time (EDT) Temp. Windchill Dew Point Humidity Pressure Visibility Wind Dir Wind Speed Gust Speed Precip Events Conditions
12:15 AM 43.7 °F - 43.7 °F 100% 30.12 in 10.0 mi Calm Calm - N/A   Clear
12:35 AM 43.0 °F 41.3 °F 43.0 °F 100% 30.11 in 10.0 mi NNE 3.5 mph - N/A   Clear
12:55 AM 43.5 °F - 43.0 °F 98% 30.13 in 10.0 mi Calm Calm - N/A   Clear
1:15 AM 43.2 °F - 42.8 °F 99% 30.14 in 10.0 mi Calm Calm - N/A   Clear
1:35 AM 43.0 °F 40.3 °F 43.0 °F 100% 30.12 in 10.0 mi North 4.6 mph - N/A   Clear
1:55 AM 43.7 °F 39.1 °F 42.8 °F 97% 30.11 in 10.0 mi NE 8.1 mph - N/A   Clear
2:15 AM 43.7 °F 38.6 °F 42.4 °F 95% 30.10 in 10.0 mi NNE 9.2 mph - N/A   Clear
2:35 AM 43.9 °F 38.3 °F 42.4 °F 95% 30.10 in 10.0 mi NE 10.4 mph - N/A   Clear
2:55 AM 44.1 °F 40.1 °F 42.6 °F 95% 30.12 in 10.0 mi NNE 6.9 mph - N/A   Clear
3:15 AM 43.9 °F 38.3 °F 43.0 °F 97% 30.10 in 10.0 mi NE 10.4 mph - N/A   Clear
3:35 AM 43.7 °F 40.3 °F 42.8 °F 97% 30.10 in 10.0 mi NE 5.8 mph - N/A   Clear
3:55 AM 43.7 °F 39.1 °F 42.8 °F 97% 30.09 in 10.0 mi NE 8.1 mph - N/A   Clear
4:15 AM 44.1 °F 40.1 °F 43.0 °F 96% 30.09 in 10.0 mi NE 6.9 mph - N/A   Clear
4:35 AM 44.2 °F 40.3 °F 43.0 °F 95% 30.10 in 10.0 mi ENE 6.9 mph - N/A   Clear
4:55 AM 44.6 °F 39.7 °F 42.8 °F 93% 30.10 in 10.0 mi ENE 9.2 mph - N/A   Clear
5:15 AM 44.8 °F 39.0 °F 42.8 °F 93% 30.09 in 10.0 mi ENE 11.5 mph 16.1 mph N/A   Clear
5:35 AM 45.0 °F 39.7 °F 42.3 °F 90% 30.09 in 10.0 mi East 10.4 mph - N/A   Clear
5:55 AM 45.1 °F 39.9 °F 41.9 °F 88% 30.10 in 10.0 mi East 10.4 mph - N/A   Clear
6:15 AM 45.3 °F 40.1 °F 42.8 °F 91% 30.11 in 10.0 mi East 10.4 mph - N/A   Clear
6:35 AM 45.5 °F 41.3 °F 42.8 °F 90% 30.12 in 10.0 mi East 8.1 mph - N/A   Scattered Clouds
6:55 AM 45.5 °F 40.8 °F 42.8 °F 90% 30.11 in 10.0 mi East 9.2 mph - N/A   Scattered Clouds
7:15 AM 45.5 °F 40.8 °F 42.8 °F 90% 30.14 in 10.0 mi ESE 9.2 mph - N/A   Clear
7:35 AM 45.9 °F 40.4 °F 42.8 °F 89% 30.14 in 10.0 mi East 11.5 mph - N/A   Clear
7:55 AM 46.2 °F 41.2 °F 42.8 °F 88% 30.13 in 10.0 mi East 10.4 mph - N/A   Scattered Clouds
8:15 AM 46.8 °F - 43.3 °F 88% 30.13 in 10.0 mi East 9.2 mph - N/A   Mostly Cloudy
8:35 AM 47.3 °F - 43.5 °F 87% 30.11 in 10.0 mi East 10.4 mph - N/A   Scattered Clouds
8:55 AM 47.5 °F - 43.5 °F 86% 30.10 in 10.0 mi East 11.5 mph 17.3 mph N/A   Mostly Cloudy
9:15 AM 48.2 °F - 43.7 °F 84% 30.09 in 10.0 mi East 13.8 mph 21.9 mph N/A   Scattered Clouds
9:35 AM 49.1 °F - 43.7 °F 82% 30.08 in 10.0 mi ESE 19.6 mph 26.5 mph N/A   Mostly Cloudy
9:55 AM 49.3 °F - 43.7 °F 81% 30.09 in 10.0 mi ESE 15.0 mph 23.0 mph N/A   Overcast
10:15 AM 50.2 °F - 44.1 °F 79% 30.08 in 10.0 mi ESE 13.8 mph 19.6 mph N/A   Overcast
10:35 AM 50.7 °F - 43.7 °F 77% 30.09 in 10.0 mi SE 16.1 mph 23.0 mph N/A   Overcast
10:55 AM 51.6 °F - 44.1 °F 75% 30.09 in 10.0 mi ESE 18.4 mph 25.3 mph N/A   Overcast
11:15 AM 51.8 °F - 44.1 °F 75% 30.09 in 10.0 mi ESE 13.8 mph 23.0 mph N/A   Overcast
11:35 AM 51.8 °F - 44.4 °F 76% 30.10 in 10.0 mi ESE 15.0 mph 19.6 mph N/A   Overcast
11:55 AM 52.3 °F - 45.0 °F 76% 30.10 in 10.0 mi ESE 13.8 mph 20.7 mph N/A   Overcast
12:15 PM 52.2 °F - 45.3 °F 78% 30.10 in 10.0 mi ESE 12.7 mph - N/A   Overcast
12:35 PM 52.5 °F - 45.3 °F 76% 30.10 in 10.0 mi ESE 12.7 mph 17.3 mph N/A   Overcast
12:55 PM 52.3 °F - 46.6 °F 81% 30.07 in 10.0 mi East 13.8 mph 24.2 mph N/A   Light Drizzle
1:15 PM 53.2 °F - 46.8 °F 79% 30.08 in 10.0 mi SE 11.5 mph - N/A   Overcast
1:35 PM 52.7 °F - 48.6 °F 86% 30.08 in 7.0 mi ESE 10.4 mph 16.1 mph N/A Rain Light Rain
1:55 PM 53.6 °F - 48.0 °F 81% 30.07 in 10.0 mi ESE 11.5 mph - N/A   Overcast
2:15 PM 53.6 °F - 47.8 °F 81% 30.07 in 10.0 mi East 12.7 mph 16.1 mph N/A   Overcast
2:35 PM 52.9 °F - 49.1 °F 87% 30.08 in 10.0 mi East 10.4 mph - 0.01 in Rain Light Rain
2:55 PM 52.7 °F - 49.1 °F 88% 30.06 in 10.0 mi ENE 10.4 mph - 0.01 in   Light Drizzle
3:15 PM 52.7 °F - 48.9 °F 87% 30.05 in 10.0 mi East 10.4 mph 18.4 mph N/A Rain Light Rain
3:35 PM 53.4 °F - 48.6 °F 84% 30.05 in 10.0 mi East 12.7 mph 16.1 mph N/A   Overcast
3:55 PM 53.1 °F - 50.0 °F 89% 30.05 in 10.0 mi East 13.8 mph 17.3 mph N/A   Light Drizzle
4:15 PM 54.0 °F - 49.1 °F 84% 30.06 in 10.0 mi East 10.4 mph - N/A   Overcast
4:35 PM 54.0 °F - 48.4 °F 81% 30.05 in 10.0 mi East 12.7 mph 18.4 mph N/A   Light Drizzle
4:55 PM 54.3 °F - 48.4 °F 80% 30.04 in 10.0 mi East 11.5 mph - N/A   Overcast
5:15 PM 52.9 °F - 49.6 °F 89% 30.04 in 10.0 mi East 10.4 mph 20.7 mph 0.01 in   Drizzle
5:35 PM 52.5 °F - 49.8 °F 91% 30.03 in 10.0 mi East 12.7 mph 17.3 mph 0.01 in Rain Light Rain
5:55 PM 52.7 °F - 49.8 °F 90% 30.02 in 10.0 mi East 12.7 mph 21.9 mph 0.01 in Rain Light Rain
6:15 PM 52.7 °F - 48.4 °F 85% 30.01 in 10.0 mi East 19.6 mph 25.3 mph N/A   Overcast
6:35 PM 52.7 °F - 48.0 °F 84% 30.00 in 10.0 mi East 17.3 mph 26.5 mph N/A   Overcast
6:55 PM 52.7 °F - 48.0 °F 84% 29.99 in 10.0 mi East 17.3 mph 23.0 mph N/A   Overcast
7:10 PM 53.2 °F - 47.5 °F 81% 29.99 in 10.0 mi East 16.1 mph 23.0 mph N/A   Overcast
7:35 PM 53.6 °F - 47.7 °F 80% 29.99 in 10.0 mi East 19.6 mph 25.3 mph N/A   Scattered Clouds
7:55 PM 53.1 °F - 48.2 °F 84% 29.99 in 10.0 mi East 16.1 mph 21.9 mph N/A   Mostly Cloudy
8:15 PM 52.9 °F - 48.2 °F 84% 29.98 in 10.0 mi East 15.0 mph 19.6 mph N/A   Scattered Clouds
8:35 PM 52.9 °F - 47.3 °F 81% 29.97 in 10.0 mi East 15.0 mph 20.7 mph N/A   Clear
8:55 PM 52.3 °F - 46.9 °F 82% 29.97 in 10.0 mi East 16.1 mph 21.9 mph N/A   Clear
9:15 PM 52.2 °F - 46.4 °F 81% 29.97 in 10.0 mi East 17.3 mph 21.9 mph N/A   Clear
9:35 PM 52.2 °F - 46.4 °F 81% 29.97 in 10.0 mi East 15.0 mph 20.7 mph N/A   Clear
9:55 PM 52.2 °F - 46.0 °F 80% 29.96 in 10.0 mi East 16.1 mph 20.7 mph N/A   Clear
10:15 PM 52.2 °F - 46.0 °F 80% 29.96 in 10.0 mi East 15.0 mph - N/A   Clear
10:35 PM 52.2 °F - 46.2 °F 80% 29.97 in 10.0 mi East 12.7 mph 18.4 mph N/A   Clear
10:55 PM 52.2 °F - 46.0 °F 80% 29.97 in 10.0 mi East 13.8 mph - N/A   Clear
11:15 PM 52.2 °F - 46.0 °F 80% 29.96 in 10.0 mi East 13.8 mph 19.6 mph N/A   Clear
11:35 PM 52.7 °F - 45.9 °F 78% 29.95 in 10.0 mi East 13.8 mph 19.6 mph N/A   Clear
11:55 PM 52.5 °F - 45.9 °F 78% 29.96 in 10.0 mi ESE 11.5 mph - N/A   Clear